Location: Grevenbroich
(51.0902°N, 6.5859°E)
Time: 00:58:25
(UTC+01:00)

ISS - Pass Details

Date: 18 February 2026
Orbit: 416 x 427 km, 51.6° (Epoch: 7 March)

Event Time Altitude Azimuth Distance (km) Brightness Sun altitude
Exits shadow 04:52:55 17° 116° (ESE) 1,122 -1.1 -26.9°
Drops below altitude 10° 04:54:22 10° 94° (E) 1,495 -0.1 -26.7°
Sets 04:56:48 0° 77° (ENE) 2,360 1.4 -26.3°
